Dewpoint
45 45 46 47 48 43 34 22 18 25 28 19 17 15 18 25 18 25 27 26 27 24 23 19 20 19 18 21 22 20 23 24 17 17 19 22 31 29 29 20 20 22 19 26
44 45 47 48 48 40 27 21 18 26 27 15 18 19 21 24 23 26 28 26 28 28 24 19 20 20 23 23 23 24 28 21 16 22 27 28 32 29 28 30 26 24 16 23
44 45 47 48 47 43 30 21 18 22 23 20 19 19 20 22 27 26 30 30 31 28 23 22 18 18 21 26 28 33 31 25 22 17 22 27 23 23 26 28 23 26 25 27
44 45 47 47 46 43 33 25 19 19 15 20 22 21 22 22 23 27 27 26 25 28 23 25 20 26 27 29 32 31 29 21 25 26 23 21 23 22 21 21 23 22 26 28
44 45 47 47 46 40 31 25 21 22 21 21 22 24 22 22 24 26 23 24 25 26 27 27 26 28 27 26 29 27 29 24 27 25 27 20 18 22 20 20 22 23 24 24
44 45 47 46 45 38 32 32 27 25 23 21 22 22 24 23 26 26 25 26 25 24 25 29 29 29 31 31 28 26 27 25 25 21 23 19 14 22 24 23 24 25 20 26
44 45 46 47 45 39 36 33 26 23 21 21 21 24 26 25 26 26 26 27 25 27 31 30 27 29 29 30 26 29 26 27 24 20 19 8 22 29 28 26 26 27 27 29
44 44 46 46 46 42 36 35 30 24 20 22 22 24 25 26 27 26 26 27 28 31 25 22 19 19 20 22 24 23 24 27 13 11 15 21 19 25 25 23 23 28 28 29
43 44 45 46 46 42 35 34 34 27 22 22 24 23 25 24 25 24 25 28 31 28 24 22 15 16 20 16 19 22 23 21 17 15 8 9 21 28 29 32 16 29 29 29
42 43 45 46 46 43 36 35 35 29 23 23 24 24 24 26 26 23 25 27 27 28 23 17 19 19 23 17 17 19 19 19 15 15 15 20 27 29 24 12 19 30 31 30
41 43 44 45 46 44 35 32 35 30 24 23 25 26 24 25 26 21 24 22 25 26 20 18 17 18 21 18 22 21 20 13 17 15 14 12 30 26 21 28 31 30 29 30
41 42 44 45 45 44 36 31 35 37 30 26 30 28 27 27 29 27 26 24 25 21 19 19 20 21 20 19 16 24 18 24 21 23 22 31 32 31 33 33 29 29 28 28
40 42 43 44 45 44 37 31 33 34 27 26 25 24 27 29 31 33 24 25 27 25 26 19 20 20 19 16 20 20 21 24 23 24 26 29 32 33 32 31 30 29 28 28
39 41 42 43 44 41 36 33 33 33 28 22 22 30 27 29 31 31 32 29 27 28 26 22 19 20 23 19 20 21 25 23 22 23 26 27 28 29 30 30 30 28 28 28
38 40 41 42 43 39 35 33 34 35 29 24 24 26 25 28 31 29 29 27 25 23 23 22 22 22 22 22 22 20 24 22 17 16 27 26 25 28 29 29 29 29 28 28
38 39 41 42 43 37 30 26 29 36 35 26 20 26 24 25 28 29 28 30 26 25 21 20 21 24 22 20 19 23 24 26 28 24 28 26 25 27 29 28 29 30 29 29
37 39 40 41 38 31 25 20 24 37 35 27 21 18 22 26 26 27 27 28 28 23 21 20 17 19 21 19 17 21 24 24 24 27 26 21 23 24 27 29 30 31 30 29
37 39 42 42 40 38 31 32 39 36 32 29 21 21 19 24 23 23 28 24 23 25 21 20 18 19 19 14 15 18 19 20 20 21 21 21 22 23 25 29 30 30 30 29
40 40 36 31 33 29 31 39 37 35 31 27 23 19 12 25 26 25 26 26 20 24 20 17 19 18 14 15 15 15 18 18 19 20 20 21 22 23 25 27 29 29 30 29
37 33 26 22 29 38 36 26 17 21 24 30 24 23 19 24 25 23 21 23 21 17 20 23 20 17 19 17 16 16 18 19 20 19 19 20 21 24 26 27 28 31 31 30
29 24 24 33 37 31 23 10 11 18 13 23 27 22 19 23 22 23 22 19 21 16 19 16 18 17 19 17 17 18 18 19 20 21 22 22 24 25 26 27 29 30 31 29
32 34 34 32 28 21 8 12 20 22 14 23 17 15 21 21 26 23 21 19 20 14 21 17 13 20 21 18 19 20 19 21 20 20 21 24 25 27 26 26 28 30 31 30
31 29 26 22 20 7 -3 -4 18 16 21 22 19 18 19 19 23 22 20 13 14 19 11 14 17 20 22 20 20 21 22 23 21 21 23 24 25 27 28 28 29 31 31 30
27 20 6 14 13 16 15 13 12 19 22 21 20 21 23 23 21 22 12 15 15 10 8 14 20 20 23 22 22 22 20 19 18 20 22 23 25 27 27 27 28 28 30 29
28 26 16 20 21 22 21 22 22 22 25 25 24 23 23 23 19 20 17 11 8 12 12 15 19 22 24 22 23 21 20 20 20 22 24 24 25 26 27 27 31 32 30 29
30 29 25 25 23 22 25 21 20 25 26 25 24 22 19 19 21 18 14 13 11 13 16 19 23 24 23 23 23 23 22 22 23 24 24 25 26 26 27 31 32 28 27 24
29 28 28 25 24 24 26 22 21 26 22 20 23 17 16 22 19 18 18 17 16 18 22 23 24 24 24 24 24 24 24 24 24 24 25 26 27 28 29 29 30 29 28 27
Lifted_Index
15 15 15 14 14 15 15 14 13 14 13 11 11 10 9 6 4 4 4 4 3 4 4 3 2 2 3 3 3 3 3 3 1 1 1 0 0 0 0 0 0 0 0 0
15 15 15 14 14 15 15 14 13 14 13 11 11 10 8 5 4 4 4 4 3 3 4 3 3 3 3 3 3 4 4 3 2 1 1 0 0 0 0 0 0 0 0 0
15 15 14 14 14 15 15 14 13 13 13 12 11 10 7 5 4 4 4 4 4 3 4 4 3 3 3 4 4 4 4 3 3 2 1 1 1 0 0 0 0 0 1 1
16 15 14 14 14 15 15 13 12 12 12 12 11 10 7 5 4 4 4 5 4 4 4 4 4 4 4 4 4 4 4 3 3 3 2 2 1 1 0 0 1 1 1 1
15 15 14 14 15 15 15 14 13 13 12 11 11 10 7 5 4 4 5 5 5 5 5 4 5 5 5 4 4 4 3 3 3 2 2 2 1 1 1 1 1 2 2 2
16 15 15 14 15 15 15 15 14 13 12 11 10 9 8 6 5 5 5 6 6 5 5 5 5 6 6 5 4 3 3 3 2 2 2 2 2 3 3 3 3 3 3 4
16 15 15 15 15 15 15 15 14 12 11 11 10 9 8 6 5 5 6 6 6 6 6 6 5 6 6 6 5 4 3 2 2 1 1 2 3 5 5 5 5 5 6 6
16 16 15 15 15 15 15 15 14 12 11 11 11 10 8 7 6 6 6 6 7 6 6 5 4 4 4 5 5 5 4 3 2 1 1 2 4 6 6 6 6 7 7 7
16 16 15 15 15 15 15 15 14 13 12 12 11 10 9 8 7 6 6 6 7 6 5 3 2 3 3 4 5 5 4 3 2 2 2 3 5 7 7 6 6 7 8 8
17 16 15 15 15 15 15 15 14 13 12 12 11 10 9 9 7 6 6 6 6 5 4 3 3 4 4 5 4 4 3 3 2 2 2 4 7 8 7 6 7 9 9 9
17 16 16 15 15 15 15 15 14 13 12 12 11 10 9 9 8 7 6 5 5 5 4 4 5 5 6 6 5 5 3 3 3 3 4 6 8 9 8 9 10 11 10 10
17 17 16 15 15 15 15 14 14 13 12 12 12 11 10 9 8 8 7 6 6 6 6 6 6 6 6 6 6 7 6 6 6 6 7 8 9 10 10 10 11 11 12 12
17 17 16 16 16 16 15 15 14 13 13 12 12 11 10 9 9 9 8 7 7 7 7 7 7 7 7 7 7 8 8 8 8 8 9 9 10 10 10 11 11 12 12 12
18 17 16 16 16 16 16 15 14 14 13 13 12 11 10 10 9 9 9 8 8 7 7 7 7 8 8 8 8 9 9 9 8 8 9 9 9 10 10 11 11 12 13 13
18 17 17 16 16 16 16 15 15 14 13 13 12 11 11 10 10 10 9 9 9 8 7 7 7 8 8 8 8 9 9 9 9 8 9 9 9 10 10 10 11 12 12 13
18 18 17 16 16 16 16 15 15 14 13 13 12 12 11 11 10 10 9 9 9 9 8 8 8 8 8 8 8 8 9 9 9 8 9 9 9 9 9 10 10 11 12 12
18 18 17 16 16 17 17 16 15 14 14 13 12 12 11 11 10 10 9 9 9 9 9 9 8 8 7 7 7 7 8 8 8 9 9 9 9 9 9 9 10 10 11 11
18 18 17 16 16 17 17 17 16 15 14 13 12 12 11 11 11 10 10 9 9 9 9 9 9 8 8 7 7 7 7 8 8 8 8 8 8 9 9 9 9 10 10 10
18 17 17 17 17 17 17 17 16 15 14 13 12 12 11 11 11 10 10 9 9 8 8 8 8 8 8 8 8 7 7 7 7 7 7 7 8 8 8 9 9 9 10 10
17 17 17 16 17 17 16 16 16 15 14 13 13 12 12 11 11 11 11 10 9 8 8 8 8 8 8 8 8 8 7 7 7 6 6 7 7 7 7 8 8 8 9 9
17 17 16 16 16 16 15 15 14 14 13 13 13 13 12 12 11 11 11 10 9 9 8 8 8 8 8 8 8 8 7 7 7 7 7 6 6 6 6 7 7 7 8 8
16 16 16 15 15 14 13 12 12 12 12 13 13 13 13 13 12 11 11 10 9 9 9 8 8 8 8 8 8 8 8 7 7 7 7 7 7 6 6 6 6 7 7 7
15 14 14 13 13 11 10 10 11 11 12 13 13 13 13 13 13 12 11 10 10 9 9 8 8 8 8 8 9 9 8 8 8 8 7 7 7 7 7 7 7 7 7 7
13 12 11 11 11 11 11 11 11 12 13 13 13 13 13 13 12 12 11 10 9 9 8 8 9 9 9 9 9 9 9 9 8 8 8 7 7 7 7 7 7 7 7 6
11 11 10 10 11 12 12 13 12 13 13 13 13 13 13 12 12 11 10 9 9 8 8 9 9 9 9 9 9 9 9 9 9 9 8 8 8 7 7 7 7 7 7 6
11 11 10 10 11 12 13 13 12 12 12 12 12 12 12 12 11 11 10 9 8 9 9 10 10 9 9 9 9 10 10 10 9 9 9 8 8 8 8 8 7 7 7 7
12 11 11 11 11 12 13 12 12 12 12 12 12 12 11 11 11 10 10 9 9 10 10 10 10 10 9 9 10 10 10 10 9 9 9 9 8 8 8 8 8 7 7 7